SP6FIG Weather Reports


time (UTC)temp
C
wind
direction
speed
KPH
gust
KPH
rain 1hr
cm
rain 24hr
cm
rain mn
cm
humidity
%
barometer
mb
20260506201030 25 0.0 0.0 0.00 0.00 0.00 40 957.9
20260506200030 25 0.0 0.0 0.00 0.00 0.00 40 958.1
20260506195030 25 0.0 0.0 0.00 0.00 0.00 39 958.1
20260506194030 25 0.0 0.0 0.00 0.00 0.00 40 958.1
20260506193030 25 0.0 0.0 0.00 0.00 0.00 40 958.5
20260506192030 25 0.0 0.0 0.00 0.00 0.00 40 958.3
20260506191030 25 0.0 0.0 0.00 0.00 0.00 40 958.2
20260506190030 25 0.0 0.0 0.00 0.00 0.00 41 958.9
20260506185030 24 0.0 0.0 0.00 0.00 0.00 41 958.8
20260506184030 24 0.0 0.0 0.00 0.00 0.00 41 958.4
20260506183030 24 0.0 0.0 0.00 0.00 0.00 40 958.0
20260506182030 24 0.0 0.0 0.00 0.00 0.00 40 958.0
20260506181030 24 0.0 0.0 0.00 0.00 0.00 40 957.6
20260506180030 25 0.0 0.0 0.00 0.00 0.00 40 957.8
20260506175030 25 0.0 0.0 0.00 0.00 0.00 40 958.0
20260506174030 24 0.0 0.0 0.00 0.00 0.00 40 958.0
20260506173030 24 0.0 0.0 0.00 0.00 0.00 40 957.8
20260506172030 24 0.0 0.0 0.00 0.00 0.00 40 957.5
20260506171030 24 0.0 0.0 0.00 0.00 0.00 39 957.4
20260506170030 24 0.0 0.0 0.00 0.00 0.00 39 957.0
20260506165030 25 0.0 0.0 0.00 0.00 0.00 38 956.9
20260506164030 25 0.0 0.0 0.00 0.00 0.00 37 957.1
20260506163030 25 0.0 0.0 0.00 0.00 0.00 37 957.2
20260506162030 25 0.0 0.0 0.00 0.00 0.00 37 957.4
20260506161030 24 0.0 0.0 0.00 0.00 0.00 37 957.7
20260506160030 23 0.0 0.0 0.00 0.00 0.00 40 957.9
20260506155030 25 0.0 0.0 0.00 0.00 0.00 32 957.7
20260506154030 24 0.0 0.0 0.00 0.00 0.00 32 957.4
20260506153029 25 0.0 0.0 0.00 0.00 0.00 31 957.4
20260506152030 25 0.0 0.0 0.00 0.00 0.00 31 957.4
20260506151030 25 0.0 0.0 0.00 0.00 0.00 31 957.4
20260506150030 25 0.0 0.0 0.00 0.00 0.00 32 957.5
20260506145030 25 0.0 0.0 0.00 0.00 0.00 31 957.7
20260506144030 25 0.0 0.0 0.00 0.00 0.00 32 957.8
20260506143030 25 0.0 0.0 0.00 0.00 0.00 32 957.7
20260506142030 25 0.0 0.0 0.00 0.00 0.00 33 957.7
20260506141030 25 0.0 0.0 0.00 0.00 0.00 34 957.7
20260506140030 25 0.0 0.0 0.00 0.00 0.00 33 958.0
20260506135030 24 0.0 0.0 0.00 0.00 0.00 32 958.2
20260506134029 25 0.0 0.0 0.00 0.00 0.00 34 958.2
20260506133030 24 0.0 0.0 0.00 0.00 0.00 34 958.3
20260506132030 24 0.0 0.0 0.00 0.00 0.00 32 958.3
20260506131029 25 0.0 0.0 0.00 0.00 0.00 34 958.4
20260506130029 25 0.0 0.0 0.00 0.00 0.00 34 958.5
20260506125030 25 0.0 0.0 0.00 0.00 0.00 34 958.5
20260506124029 25 0.0 0.0 0.00 0.00 0.00 35 958.6
20260506123030 25 0.0 0.0 0.00 0.00 0.00 34 958.6
20260506122030 24 0.0 0.0 0.00 0.00 0.00 34 958.7
20260506121030 24 0.0 0.0 0.00 0.00 0.00 34 958.7
20260506120029 24 0.0 0.0 0.00 0.00 0.00 34 958.6
20260506115030 24 0.0 0.0 0.00 0.00 0.00 33 958.4
20260506114029 24 0.0 0.0 0.00 0.00 0.00 34 958.5
20260506113030 24 0.0 0.0 0.00 0.00 0.00 34 958.6
20260506112029 24 0.0 0.0 0.00 0.00 0.00 34 958.7
20260506111029 23 0.0 0.0 0.00 0.00 0.00 34 958.7
20260506110030 24 0.0 0.0 0.00 0.00 0.00 35 958.6
20260506105029 24 0.0 0.0 0.00 0.00 0.00 35 958.6
20260506104030 24 0.0 0.0 0.00 0.00 0.00 35 958.6
20260506103030 24 0.0 0.0 0.00 0.00 0.00 35 958.5
20260506102029 24 0.0 0.0 0.00 0.00 0.00 34 958.4
20260506101029 24 0.0 0.0 0.00 0.00 0.00 34 958.5
20260506100030 23 0.0 0.0 0.00 0.00 0.00 35 958.2
20260506095030 24 0.0 0.0 0.00 0.00 0.00 35 958.2
20260506094030 23 0.0 0.0 0.00 0.00 0.00 36 958.6
20260506093030 23 0.0 0.0 0.00 0.00 0.00 36 958.4
20260506092030 23 0.0 0.0 0.00 0.00 0.00 36 958.3
20260506091031 23 0.0 0.0 0.00 0.00 0.00 36 958.3
20260506090030 23 0.0 0.0 0.00 0.00 0.00 35 958.2
20260506085030 23 0.0 0.0 0.00 0.00 0.00 36 958.2
20260506084030 23 0.0 0.0 0.00 0.00 0.00 36 958.1
20260506083030 23 0.0 0.0 0.00 0.00 0.00 36 958.0
20260506082030 23 0.0 0.0 0.00 0.00 0.00 36 957.9
20260506081030 23 0.0 0.0 0.00 0.00 0.00 36 957.9
20260506073030 24 0.0 0.0 0.00 0.00 0.00 38 958.0
20260506072030 24 0.0 0.0 0.00 0.00 0.00 39 958.0
20260506071030 24 0.0 0.0 0.00 0.00 0.00 38 957.8
20260506062030 25 0.0 0.0 0.00 0.00 0.00 38 957.4
20260506061030 25 0.0 0.0 0.00 0.00 0.00 38 957.5
20260506051030 25 0.0 0.0 0.00 0.00 0.00 39 957.0
20260506045030 25 0.0 0.0 0.00 0.00 0.00 39 956.9
20260506044030 24 0.0 0.0 0.00 0.00 0.00 39 956.8
20260506043030 25 0.0 0.0 0.00 0.00 0.00 39 956.8
20260506042030 24 0.0 0.0 0.00 0.00 0.00 39 956.7
20260506041030 24 0.0 0.0 0.00 0.00 0.00 38 956.7
20260506040030 24 0.0 0.0 0.00 0.00 0.00 38 956.7
20260506035030 24 0.0 0.0 0.00 0.00 0.00 38 956.7
20260506034030 24 0.0 0.0 0.00 0.00 0.00 38 956.7
20260506033030 24 0.0 0.0 0.00 0.00 0.00 38 956.7
20260506032030 24 0.0 0.0 0.00 0.00 0.00 38 956.6
20260506031030 24 0.0 0.0 0.00 0.00 0.00 38 956.6
20260506030030 24 0.0 0.0 0.00 0.00 0.00 39 956.7
20260506025030 24 0.0 0.0 0.00 0.00 0.00 39 956.7
20260506024030 24 0.0 0.0 0.00 0.00 0.00 39 956.5
20260506023030 24 0.0 0.0 0.00 0.00 0.00 39 956.4
20260506022030 24 0.0 0.0 0.00 0.00 0.00 39 956.5
20260506021030 24 0.0 0.0 0.00 0.00 0.00 39 956.7
20260506020029 24 0.0 0.0 0.00 0.00 0.00 39 957.2
20260506015030 24 0.0 0.0 0.00 0.00 0.00 39 957.5
20260506014030 24 0.0 0.0 0.00 0.00 0.00 39 957.5
20260506013029 24 0.0 0.0 0.00 0.00 0.00 39 957.6
20260506012030 24 0.0 0.0 0.00 0.00 0.00 39 957.5
20260506011030 24 0.0 0.0 0.00 0.00 0.00 39 957.5
20260506010030 25 0.0 0.0 0.00 0.00 0.00 39 957.5
20260506005030 24 0.0 0.0 0.00 0.00 0.00 39 957.5
20260506004029 24 0.0 0.0 0.00 0.00 0.00 39 957.5
20260506003029 24 0.0 0.0 0.00 0.00 0.00 39 957.3
20260506002029 24 0.0 0.0 0.00 0.00 0.00 38 957.4
20260506001029 25 0.0 0.0 0.00 0.00 0.00 39 957.3
20260506000030 25 0.0 0.0 0.00 0.00 0.00 39 957.5
20260505235030 25 0.0 0.0 0.00 0.00 0.00 39 957.8
20260505234029 25 0.0 0.0 0.00 0.00 0.00 39 957.9
20260505233029 25 0.0 0.0 0.00 0.00 0.00 39 957.8
20260505232030 25 0.0 0.0 0.00 0.00 0.00 39 957.8
20260505231029 25 0.0 0.0 0.00 0.00 0.00 39 957.6
20260505230029 25 0.0 0.0 0.00 0.00 0.00 39 957.6
20260505225030 25 0.0 0.0 0.00 0.00 0.00 39 957.7
20260505224029 25 0.0 0.0 0.00 0.00 0.00 38 957.6
20260505223029 25 0.0 0.0 0.00 0.00 0.00 39 957.8
20260505222030 25 0.0 0.0 0.00 0.00 0.00 39 957.9
20260505221029 25 0.0 0.0 0.00 0.00 0.00 39 958.0
20260505220029 25 0.0 0.0 0.00 0.00 0.00 39 958.0
20260505215029 25 0.0 0.0 0.00 0.00 0.00 39 958.2
20260505214029 25 0.0 0.0 0.00 0.00 0.00 39 958.2
20260505213029 25 0.0 0.0 0.00 0.00 0.00 38 958.3
20260505212030 25 0.0 0.0 0.00 0.00 0.00 39 958.5
20260505211029 25 0.0 0.0 0.00 0.00 0.00 39 958.5
20260505210029 25 0.0 0.0 0.00 0.00 0.00 39 958.6
20260505205029 25 0.0 0.0 0.00 0.00 0.00 39 958.7
20260505204029 25 0.0 0.0 0.00 0.00 0.00 39 958.7
20260505203029 25 0.0 0.0 0.00 0.00 0.00 39 958.7
20260505202029 25 0.0 0.0 0.00 0.00 0.00 39 958.7